Location: Richmond
(37.5536°N, 77.4606°W)
Time: 07:58:33
(UTC-05:00)

ISS - Visible Passes

Search period start: 27 November 2014 00:00
Search period end: 07 December 2014 00:00
Orbit: 407 x 417 km, 51.6° (Epoch: 27 November)

Date Brightness Start Highest point End Pass type
(mag) Time Alt. Az. Time Alt. Az. Time Alt. Az.
27 Nov -2.1 05:14:57 34° NNE 05:15:13 34° NNE 05:18:16 10° ESE visible
28 Nov 0.0 04:27:26 13° ENE 04:27:26 13° ENE 04:27:55 10° E visible
28 Nov -2.7 06:00:16 21° WNW 06:02:01 41° SW 06:05:08 10° SSE visible
29 Nov -2.8 05:12:47 58° SE 05:12:47 58° SE 05:15:30 10° SE visible
30 Nov 0.2 04:25:22 11° ESE 04:25:22 11° ESE 04:25:32 10° ESE visible
30 Nov -1.3 05:58:12 14° WSW 05:58:38 14° SW 06:00:29 10° SSW visible
01 Dec -0.9 05:10:49 16° S 05:10:49 16° S 05:11:42 10° SSE visible
05 Dec -1.2 18:26:41 10° S 18:27:59 16° SSE 18:27:59 16° SSE visible
06 Dec -0.7 19:12:03 10° SW 19:13:11 20° WSW 19:13:11 20° WSW visible
